Погода в Бестяхе

Россия / Республика Саха (Якутия)     65°17′01″N   124°07′40″E
темп.,
°C
ветер,
м/с
пор.,
м/с
влажн.,
%
обл.,
%
осадки,
мм/ч
давл.,
гПа
погр.,
м
27 февраля, сб
сб2700:00−36вюв2210066 0.0 103219
03:00−35юв229880 0.0 103119
06:00−34в2296100 0.0 103144
09:00−35всв119362 0.0 103019
12:00−31всв22880 0.0 1029145
15:00−29ссв23898 0.0 1026141
18:00−31с4694100 0.0 1026100
21:00−31ссз4693100 0.0 1024135
28 февраля, вс
вс2800:00−31ссз4792100 0.0 1023170
03:00−30ссз5892100 0.0 1021274
06:00−30ссз4794100 0.0 1021281
09:00−30сз4794100 0.1 1020288
12:00−28сз4793100 0.1 1021364
15:00−27сз3691100 0.1 1022451
18:00−28сз2395100 0.1 102487
21:00−27сз2596100 0.1 1025238
1 марта, пн
пн100:00−28зсз2297100 0.1 102548
03:00−28зсз2397100 0.1 1025124
06:00−29зсз2397100 0.1 1026117
09:00−29зсз2495100 0.1 1026245
12:00−27зсз3491100 0.1 1026379
15:00−27з3390100 0.1 1026445
18:00−28з2395100 0.1 102789
21:00−30зсз239699 0.1 102634
2 марта, вт
вт200:00−32зсз239597 0.0 102724
03:00−31зсз229696 0.1 102677
06:00−32зсз129697 0.0 102621
09:00−33зсз229694 0.1 102625
12:00−30ссз229196 0.0 1026261
15:00−29с128998 0.1 1026364
18:00−31ссв129696 0.0 102619
21:00−34ссз229991 0.0 102719
3 марта, ср
ср300:00−35ссз339867 0.0 102627
03:00−35ссз339674 0.0 102664
06:00−34ссз3695100 0.0 1025201
09:00−34ссз4694100 0.0 1025282
12:00−32ссз4594100 0.1 1024368
15:00−31ссз4594100 0.2 1023475
18:00−32ссз4795100 0.2 1022515
21:00−33ссз5895100 0.3 1020505